Voltar ao catálogo

CZ-3B DEB

AtivoGTO
NORAD 40164·DEBRIS·🇨🇳 China

Lançado Sep 4, 2010 de Xichang Satellite Launch Center

Loading…

TLE

EnvelhecendoSource: Space-Track

Época: Sep 14, 2026, 12:31 UTC

1 40164U 10042R   26257.52188850  .00000027  00000-0  00000-0 0  9990
2 40164  26.1171 213.8995 7329246  58.6981  18.8152  1.89873074 88965

Acompanhe CZ-3B DEB em tempo real com AllMySat

Download on the App Store